Vertical_Velocity
-0 -1 1 0 1 -0 0 0 0 1 -0 -1 -1 0 -1 -0 1 0 -1 -1 -1 -2 -1 -1 0 0 1 0 -0 1 0 0 -0 -0 0 1 1 -0 0 1 1 1 -0
-0 1 2 0 1 1 1 1 -0 0 0 -0 -0 -1 -1 -1 -1 -1 -0 -1 -2 -1 -1 -1 -1 -1 -1 0 -0 -1 -0 -0 0 -1 -1 -1 -0 1 0 -0 0 0 1
-1 -0 0 2 2 0 1 1 1 1 -0 -1 0 -1 -0 -1 -1 -0 -0 0 -0 -1 -2 -1 -1 -0 -1 -1 -1 -1 -0 -0 0 -0 -1 -1 0 0 1 1 -0 -0 -1
-0 -1 1 0 0 1 1 -0 0 -0 1 -0 -1 -1 -1 -1 -1 -1 -0 -0 1 -1 -1 -1 -1 -2 -2 -1 -0 0 -0 -2 -1 1 1 0 -0 -0 -1 -0 1 1 1
0 -0 1 -0 1 1 0 1 1 1 -0 -1 -0 0 -0 -1 -1 -1 -1 -1 -1 0 -0 -0 -1 -1 -2 -2 -2 -1 -0 -1 -1 -1 -1 1 1 -0 -0 -0 0 0 1
2 1 1 1 0 -0 -0 1 -1 -0 -1 -2 -1 -1 -1 0 0 -1 -0 -1 -0 -2 -2 -1 0 -2 -1 -2 -1 -1 -0 -1 -1 -2 -2 -1 -0 -0 -0 -0 -0 -1 -0
1 1 0 -0 0 -0 -1 -1 -1 -1 -1 -1 -1 -3 -2 -2 -4 -1 -1 -1 -1 -1 0 -0 -0 -0 -1 -1 -1 -1 -2 -2 -2 -2 -2 -2 -1 -0 -1 -1 0 1 -1
1 1 -0 0 -1 -1 -1 -1 -1 -0 -1 -1 -2 -3 -2 -2 -1 -1 -1 -1 -1 -1 -1 -0 0 -0 -1 -1 -0 -0 -1 0 -1 -1 -2 -2 -1 -1 0 0 -1 -3 -1
1 1 0 -1 -0 0 -0 1 -1 -1 -2 -1 -1 -2 -1 -1 -1 -1 -1 -1 -1 -0 -1 -1 -0 0 -0 0 -1 -0 1 0 -1 1 1 0 2 -0 -1 -0 -0 -0 -1
1 0 0 1 0 0 -0 1 -1 1 -1 -3 -3 -3 -1 -2 -1 -2 -1 -2 -1 -1 -1 -1 -1 -2 -2 -1 -0 -0 1 0 0 -0 2 -1 3 1 0 -1 0 0 0
1 1 1 -0 0 0 0 0 1 -2 -2 -2 -3 -1 -1 -1 0 -0 -1 -1 -2 -2 -2 -2 -2 -2 -0 -0 -2 -2 -2 0 1 0 1 -2 1 0 -1 2 1 0 0
1 0 0 -1 1 0 -1 0 -1 -2 -3 -1 -1 -1 -1 -1 -1 -1 -2 -1 -1 -2 -2 -2 -1 -2 -2 -1 -1 -2 -2 -1 -1 -0 0 -2 0 2 1 0 1 0 -0
1 1 -1 1 1 -0 0 -3 -3 -3 -2 -1 -1 -1 -0 -1 0 -1 -2 -3 -2 -1 1 1 0 -1 -2 -1 -2 -2 -2 -1 -1 1 1 -1 0 0 1 1 3 1 3
0 -0 0 0 -0 -1 -1 -2 -1 0 1 -2 -2 -0 -1 -1 -2 -2 -1 -1 -1 0 -1 -1 -2 -1 -2 -2 -1 -3 -2 -0 -1 0 -1 -2 -0 -1 1 3 -0 1 3
1 -0 1 -0 0 -2 -0 -1 -0 -1 -1 -1 0 -1 -2 -1 -0 0 1 -1 -1 -0 -1 -2 -1 -1 -1 -2 -1 1 -1 -2 -1 -0 -0 -1 -1 -1 -3 -2 0 -1 -2
-0 1 0 0 -1 -0 -1 -3 -1 -1 -1 -1 -0 -2 0 -1 0 -1 -2 -1 1 0 1 2 0 -2 -2 0 0 1 2 1 -1 -1 -0 0 -0 0 0 -1 0 1 -1
0 1 0 -1 -0 -1 -0 1 0 -0 -1 -2 -2 -1 -1 -1 -2 -1 -2 -1 -1 -2 -1 -1 -0 2 0 0 -1 1 0 -1 -1 -1 1 -0 -2 0 -1 -1 -3 -3 -2
1 1 -0 1 0 0 2 -0 -1 -1 -1 -2 -1 -1 0 -2 -2 -1 -1 -1 -1 -1 -1 -1 0 -0 -2 -1 -4 2 1 -1 -0 1 -0 0 -1 -1 1 1 -0 -0 -1
-0 1 1 -1 -0 -0 0 -1 -2 -2 -2 -1 -2 -1 -2 -2 0 -0 -1 -2 -1 -3 -2 -0 -0 -1 -1 -4 1 2 0 -2 0 -0 1 -0 0 1 0 0 -2 -1 -3
1 -0 -1 0 0 1 -0 -1 -1 -2 0 -1 -2 -1 -1 1 1 -1 -2 -1 -2 -2 0 -1 -2 3 0 -4 1 1 1 1 -1 -1 -2 -3 -3 -3 -2 -1 -2 -1 -2
-2 -1 0 0 -1 -0 -1 -2 -1 0 -1 -1 -2 -2 -4 -3 -3 -1 -1 -3 -3 -2 -1 -1 -3 -3 1 -2 -1 -0 -1 -3 -2 -5 -3 0 1 -2 -2 -2 -2 -4 -6
-1 -2 -1 -2 -1 -2 -2 -1 0 -1 -1 -1 -1 -2 -2 -3 -3 -1 -3 -2 -2 -4 -0 -1 -2 -1 -2 -1 -5 -3 1 1 1 -3 -2 -0 2 -0 -2 1 1 3 3
-2 -0 -0 -2 -1 -1 -0 -0 -2 -1 -1 -3 -1 -1 -0 -1 -0 -1 -3 -4 -3 -3 -4 -3 -2 -2 -3 -0 -3 -5 -4 -6 -6 -0 -3 -1 1 2 0 -2 1 -0 1
-3 -2 -1 -1 1 1 1 -1 -2 -2 -2 -1 -1 -3 -1 -3 -2 -1 -1 -1 -1 -2 -3 -0 0 1 2 -2 1 2 -1 -1 -4 -8 -6 -2 1 1 0 0 -4 -1 2
-1 -1 -2 0 2 1 -0 -2 -1 -2 -1 -1 -2 -4 -2 -2 -3 -1 -3 -1 -1 -1 -2 -1 1 2 2 2 2 1 2 3 2 1 -3 -8 -0 2 3 1 0 0 1
-2 -1 -1 3 2 -1 -2 -0 -1 -1 -1 -1 -1 -1 -1 0 -1 1 -1 0 -0 -1 -1 1 0 -1 -1 0 0 2 -2 -3 -5 -2 0 -1 -4 -10 -1 -0 -1 -3 -6
Height
5903 5903 5903 5903 5903 5903 5903 5903 5903 5903 5903 5902 5901 5901 5900 5900 5900 5899 5899 5899 5898 5897 5896 5895 5893 5892 5892 5891 5891 5890 5890 5889 5889 5888 5888 5888 5887 5886 5886 5885 5884 5883 5883
5902 5902 5902 5903 5902 5902 5903 5903 5903 5903 5903 5902 5901 5901 5900 5900 5899 5899 5898 5898 5897 5896 5895 5894 5893 5891 5890 5889 5888 5888 5887 5886 5886 5885 5885 5885 5884 5884 5884 5883 5882 5882 5881
5901 5901 5901 5901 5902 5902 5902 5902 5902 5902 5902 5901 5901 5901 5900 5899 5898 5897 5897 5896 5895 5894 5893 5892 5891 5890 5888 5887 5886 5885 5884 5883 5883 5882 5881 5880 5880 5880 5880 5880 5879 5879 5878
5899 5899 5900 5901 5901 5901 5901 5901 5901 5901 5901 5901 5901 5900 5900 5898 5897 5896 5895 5894 5892 5891 5890 5889 5888 5887 5885 5884 5883 5882 5881 5880 5879 5879 5878 5877 5876 5875 5875 5875 5875 5875 5874
5898 5898 5899 5900 5900 5901 5901 5901 5901 5901 5901 5900 5900 5899 5898 5897 5895 5894 5892 5891 5889 5888 5886 5885 5884 5883 5882 5880 5879 5878 5877 5876 5875 5874 5873 5873 5872 5872 5871 5870 5870 5870 5870
5895 5896 5897 5898 5899 5900 5900 5900 5900 5900 5899 5899 5897 5897 5896 5894 5893 5890 5888 5887 5885 5884 5882 5880 5879 5877 5876 5875 5874 5873 5872 5871 5869 5869 5868 5867 5867 5866 5866 5865 5865 5864 5864
5893 5894 5896 5896 5897 5898 5898 5899 5899 5898 5897 5896 5895 5894 5893 5891 5889 5886 5884 5882 5880 5879 5877 5875 5874 5872 5871 5869 5868 5867 5866 5865 5864 5862 5861 5861 5861 5861 5860 5859 5859 5859 5858
5891 5892 5894 5894 5895 5896 5897 5896 5896 5895 5894 5893 5892 5890 5889 5886 5884 5881 5879 5877 5875 5874 5873 5871 5869 5868 5867 5865 5863 5862 5860 5859 5858 5857 5856 5854 5854 5853 5853 5853 5852 5851 5851
5888 5890 5892 5893 5894 5894 5894 5894 5893 5893 5891 5890 5889 5887 5884 5881 5880 5878 5876 5874 5873 5871 5869 5867 5865 5864 5862 5861 5859 5857 5856 5855 5853 5852 5851 5849 5848 5846 5845 5845 5845 5844 5843
5885 5887 5889 5890 5892 5892 5892 5892 5891 5890 5889 5888 5886 5883 5879 5878 5876 5874 5873 5871 5869 5867 5866 5864 5862 5860 5858 5856 5855 5853 5851 5850 5847 5846 5845 5844 5843 5841 5839 5839 5838 5837 5837
5882 5884 5886 5888 5889 5889 5889 5889 5889 5888 5887 5885 5882 5878 5875 5874 5873 5871 5869 5867 5865 5863 5862 5860 5858 5856 5854 5852 5850 5847 5845 5843 5841 5839 5837 5836 5836 5834 5833 5832 5831 5831 5831
5879 5882 5884 5885 5886 5886 5887 5887 5886 5885 5883 5880 5877 5874 5872 5871 5869 5867 5866 5863 5861 5859 5857 5854 5851 5849 5847 5845 5843 5841 5838 5836 5835 5833 5830 5829 5828 5827 5826 5825 5824 5823 5823
5877 5879 5881 5882 5883 5884 5884 5884 5883 5881 5878 5876 5873 5870 5869 5867 5866 5864 5861 5859 5856 5853 5850 5847 5844 5841 5839 5836 5834 5832 5830 5828 5826 5824 5822 5821 5820 5818 5817 5816 5816 5815 5815
5874 5876 5878 5879 5880 5881 5881 5880 5878 5876 5873 5871 5869 5866 5865 5863 5861 5858 5855 5851 5848 5845 5841 5839 5836 5832 5829 5827 5824 5821 5819 5817 5816 5815 5813 5812 5811 5810 5809 5808 5806 5805 5805
5871 5873 5874 5875 5876 5877 5877 5875 5874 5871 5868 5866 5863 5861 5860 5857 5854 5851 5848 5844 5840 5837 5833 5829 5826 5822 5818 5815 5813 5811 5809 5808 5807 5806 5804 5803 5801 5800 5798 5797 5796 5795 5795
5867 5869 5871 5872 5872 5873 5872 5870 5868 5865 5862 5859 5857 5856 5853 5850 5847 5843 5839 5835 5831 5827 5823 5819 5815 5811 5808 5805 5804 5802 5801 5800 5799 5798 5797 5795 5794 5792 5790 5788 5787 5786 5784
5864 5866 5867 5868 5868 5868 5867 5865 5862 5859 5856 5853 5851 5849 5846 5842 5839 5835 5830 5826 5821 5817 5813 5809 5806 5804 5800 5798 5797 5797 5795 5794 5793 5791 5790 5788 5786 5784 5782 5780 5778 5777 5775
5861 5862 5863 5864 5864 5863 5861 5859 5856 5853 5850 5847 5844 5841 5837 5833 5829 5824 5819 5815 5811 5808 5805 5801 5799 5796 5794 5793 5793 5792 5790 5788 5786 5784 5783 5781 5778 5776 5774 5771 5769 5767 5765
5856 5857 5859 5860 5859 5858 5855 5852 5850 5847 5844 5840 5837 5832 5828 5823 5817 5813 5810 5806 5803 5799 5797 5794 5793 5791 5791 5789 5788 5785 5783 5781 5780 5778 5776 5774 5772 5770 5767 5764 5762 5759 5757
5851 5853 5854 5855 5853 5851 5849 5846 5843 5840 5836 5833 5829 5824 5819 5812 5807 5805 5803 5798 5794 5792 5790 5790 5789 5788 5786 5783 5781 5778 5777 5776 5774 5772 5770 5767 5765 5762 5760 5757 5754 5751 5748
5847 5848 5849 5848 5846 5844 5842 5839 5836 5833 5830 5826 5822 5817 5810 5803 5799 5799 5796 5794 5791 5789 5787 5786 5784 5782 5779 5777 5775 5774 5771 5769 5768 5766 5764 5761 5758 5756 5753 5750 5746 5743 5739
5841 5842 5842 5841 5839 5837 5835 5832 5829 5826 5822 5818 5815 5811 5804 5798 5796 5795 5793 5790 5788 5786 5784 5781 5779 5777 5774 5772 5769 5767 5766 5765 5762 5759 5756 5754 5752 5749 5746 5743 5739 5735 5731
5836 5836 5835 5834 5832 5830 5827 5824 5822 5818 5815 5811 5808 5804 5800 5796 5792 5790 5787 5786 5783 5780 5778 5775 5773 5771 5768 5766 5763 5760 5757 5755 5752 5750 5747 5744 5742 5739 5735 5732 5730 5727 5724
5829 5829 5828 5826 5824 5822 5819 5817 5814 5811 5807 5803 5800 5797 5794 5791 5787 5785 5783 5780 5777 5774 5772 5769 5767 5764 5761 5758 5755 5752 5749 5746 5742 5739 5736 5733 5731 5729 5725 5723 5719 5715 5713
5823 5822 5820 5818 5816 5813 5811 5809 5805 5802 5799 5796 5793 5790 5786 5784 5781 5778 5775 5772 5770 5767 5764 5761 5758 5755 5752 5749 5746 5742 5739 5735 5732 5729 5726 5721 5718 5716 5713 5711 5708 5705 5703
5816 5814 5812 5809 5807 5804 5802 5800 5796 5794 5791 5787 5785 5782 5779 5776 5773 5770 5767 5764 5761 5758 5755 5752 5749 5746 5743 5739 5736 5733 5729 5726 5722 5719 5716 5713 5709 5705 5703 5699 5696 5693 5690